Regional Weather Roundup
Issued by NWS Wilmington, NC

Home | Current Version | Previous Version | Text Only | Print | Product List | Glossary On
Versions: 1 2 3 4 5 6 7 8 9 10 11 12 13 14 15 16 17 18 19 20 21 22 23 24 25 26 27 28 29 30 31 32 33 34 35 36 37 38 39 40 41 42 43 44 45 46 47 48 49 50
000
ASUS42 KILM 192310
RWRILM
RWRILM
REGIONAL HOURLY WEATHER ROUNDUP
NATIONAL WEATHER SERVICE WILMINGTON NC
600 PM EST FRI DEC 19 2014

NOTE: "FAIR" INDICATES FEW OR NO CLOUDS BELOW 12,000 FEET WITH NO
SIGNIFICANT WEATHER AND/OR OBSTRUCTIONS TO VISIBILITY.

...............WFO WILMINGTON COUNTY WARNING AREA...............

......COASTAL NC AND SC COUNTIES......

CITY           SKY/WX    TMP DP  RH WIND       PRES   REMARKS
WILMINGTON     PTCLDY    49  35  58 CALM      30.15R
SOUTHPORT      PTCLDY    46  38  72 CALM      30.15R
N MYRTLE BEACH PTCLDY    47  41  80 CALM      30.14R
MYRTLE BEACH   CLEAR     52  39  62 CALM      30.16R

......INLAND NC AND SC COUNTIES.......

CITY           SKY/WX    TMP DP  RH WIND       PRES   REMARKS
LUMBERTON      MOCLDY    48  33  56 CALM      30.14R
ELIZABETHTOWN  MOCLDY    49  32  52 CALM      30.14S
WHITEVILLE     MOCLDY    48  34  56 CALM      30.13S
FLORENCE       PTCLDY    48  36  63 CALM      30.13R
DARLINGTON     PTCLDY    48  37  66 CALM      30.15R

....................REST OF NORTH CAROLINA......................

.........EASTERN NC.........

CITY           SKY/WX    TMP DP  RH WIND       PRES   REMARKS
CAPE HATTERAS  PTCLDY    41  34  76 NE6       30.16R
JACKSONVILLE   PTCLDY    43  32  65 CALM      30.18R
MOREHEAD CITY  CLEAR     45  34  65 NE5       30.17R
KENANSVILLE    MOCLDY    42  34  74 CALM      30.17R
NEW BERN       PTCLDY    45  32  60 CALM      30.18R
ELIZABETH CITY PTCLDY    42  31  64 E3        30.18R

.........CENTRAL NC.........

CITY           SKY/WX    TMP DP  RH WIND       PRES   REMARKS
RALEIGH DURHAM CLOUDY    45  28  51 CALM      30.17R
ROCKY MOUNT    PTCLDY    40  33  76 CALM      30.17R
ROANOKE RAPIDS NOT AVBL
FAYETTEVILLE   MOCLDY    49  31  49 NE3       30.14R
HOFFMAN        CLOUDY    46  39  77 NW1       30.16R

.........WESTERN NC.........

CITY           SKY/WX    TMP DP  RH WIND       PRES   REMARKS
CHARLOTTE      MOCLDY    51  28  41 CALM      30.13R
GREENSBORO     MOCLDY    46  23  40 CALM      30.14R
HICKORY        NOT AVBL
BOONE          NOT AVBL
ASHEVILLE      NOT AVBL

.....................REST OF SOUTH CAROLINA.....................

.........EASTERN SC.........

CITY           SKY/WX    TMP DP  RH WIND       PRES   REMARKS
CHARLESTON     MOCLDY    54  44  69 SE6       30.13R
BEAUFORT MCAS  CLOUDY    55  45  68 E3        30.11S
HILTON HEAD    MOCLDY    54  48  82 CALM      30.12R

.........CENTRAL SC.........

CITY           SKY/WX    TMP DP  RH WIND       PRES   REMARKS
COLUMBIA       PTCLDY    56  40  55 CALM      30.11R
ORANGEBURG     MOCLDY    55  42  61 E3        30.11S
SUMTER SHAW    PTCLDY    50  36  58 NE5       30.11R

.........WESTERN SC.........

CITY           SKY/WX    TMP DP  RH WIND       PRES   REMARKS
GREENVILLE     NOT AVBL
ROCK HILL      MOCLDY    48  32  53 CALM      30.13R
ANDERSON       MOCLDY    50  35  56 CALM      30.11R
CLEMSON        NOT AVBL
GREENWOOD      MOCLDY    48  39  71 CALM      30.13R


...................COASTAL AND OFFSHORE REPORTS..................

................LOCAL PIERS AND NC RESERVE................


STATION/POSITION TIME  SKY/WX   TEMP    WIND        PRES    VSBY
                                AIR SEA DIR/SP/G
                 (UTC)          (F)     (DEG/KT/KT) (MB)    (MI)
JOHNY MRCER PIER 2300            52 57   80/  6/  7 1020.1R
NC RESRV MASNBRO 2200            52     120/  1     1020.0S
OCEAN CREST PIER 2300            53 55  100/  4/  5 1019.9R
SPRINGMAID  PIER 2300            53 54  140/  3/  4 1020.5R


................COASTAL AND OFFSHORE BUOYS................


STATION/POSITION TIME  SKY/WX   TEMP    WIND        PRES    VSBY
                                AIR SEA DIR/SP/G
                 (UTC)          (F)     (DEG/KT/KT) (MB)    (MI)
DIMNDSHOAL 41025 2300            46                 1021.3R
WVE H/P(F/S)=  3/ 8

CAPE LOOKOUT     2200            47      20/  8/ 10 1020.5R
ONSLOW BAY 41036 2300            53 62   40/  6/  8 1021.5R
WVE H/P(F/S)=  1/11 SWL H/P/D(F/S/D)=  2/140/11

5 WRITEBCH 41038 NOT AVBL
MASONBORO  41110 2300               55                N/A
WVE H/P(F/S)=  1/11 WND WVE H/P(F/S)=  2/10

WILM HARBR 41108 2300               55                N/A
WVE H/P(F/S)=  1/11 WND WVE H/P(F/S)=  2/10

27WRITEBCH 41037 2200            51 65   50/  6/  8 1021.2R
FRYING PAN 41013 2300            56 65   40/  6/ 10 1021.4R
WVE H/P(F/S)=  2/ 9 WND WVE H/P(F/S)=  2/ 4 SWL H/P/D(F/S/D)=  2/ 80/ 9

SUNST NRSH 41024 2200            54     190/  2/  2   N/A
CAPRS NRSH 41029 2200            54      80/ 10/ 12   N/A
EDISTO     41004 2300            63 68   80/  4/  6 1019.5R
WVE H/P(F/S)=  2/10 WND WVE H/P(F/S)=  2/ 3 SWL H/P/D(F/S/D)=  2/10



..........OFFSHORE BUOYS BEYOND 100 NM OFFSHORE...........
.....IN A TRIANGLE---HAT TO BERMUDA TO BAHAMAS TO HAT.....


STATION/POSITION TIME  SKY/WX   TEMP    WIND        PRES    VSBY
                                AIR SEA DIR/SP/G
                 (UTC)          (F)     (DEG/KT/KT) (MB)    (MI)
150E HAT   41001 NOT AVBL
W BERMUDA  41048 2243            68 72  320/ 10/ 14 1017.3R
WVE H/P(F/S)=  6/ 9 WND WVE H/P(F/S)=  2/ 5 SWL H/P/D(F/S/D)=  7/ 20/ 9

ATLANTIC S 41049 2249            74 77  270/  8/ 10 1018.0R
WVE H/P(F/S)=  5/10 WND WVE H/P(F/S)=  2/ 4 SWL H/P/D(F/S/D)=  5/ 50/10

E BAHAMAS  41046 2222            77 80  100/  8/ 10 1017.8R
WVE H/P(F/S)=  4/11 WND WVE H/P(F/S)=  2/ 4 SWL H/P/D(F/S/D)=  3/ 60/11

NE BAHAMAS 41047 2209            74 78  330/  4/  6 1018.2R
WVE H/P(F/S)=  3/11 WND WVE H/P(F/S)=  2/ 4 SWL H/P/D(F/S/D)=  3/ 80/11

120E CANVRL41010 2300            71 76   10/  2/  4 1018.7R
WVE H/P(F/S)=  2/11 SWL H/P/D(F/S/D)=  2/ 90/11


END



USA.gov is the U.S. government's official web portal to all federal, state and local government web resources and services.